User: anonymous   Login
Location: Fauquembergues
(50.6005°N, 2.0987°E)
Time: 00:39:00
(UTC+00:00)
Language:

Meteor 1-19 Rocket - Orbit

View from above orbital plane
View from above orbital plane
View from above satellite
View from above satellite

Ground track
Ground track

The orbit data is extracted from the following two-line orbital elements,

1  7493U 74083B   20273.44131240 -.00000040 +00000-0 -29541-4 0  9999
2  7493 081.1606 066.6831 0078044 330.8344 028.8476 14.07584153357340
Epoch (UTC): 29 September 2020 10:35:29
Eccentricity: 0.0078044
inclination: 81.1606°
perigee height: 811 km
apogee height: 924 km
right ascension of ascending node: 66.6831°
argument of perigee: 330.8344°
revolutions per day: 14.07584153
mean anomaly at epoch: 28.8476°
orbit number at epoch: 35734

The dashed part of the orbit path shows where the satellite is in the earth's shadow,  

DLR